Ciudad Obregón International Airport

Jump to: basic info | weather | frequencies | runways | comments

Related pages: nearby airports | nearby navaids | notams | map

Basic information (top)

Codes: CEN MMCN
Location: lon 27.392599, lat -109.833000, elev 243 ft / 74 m msl
Status: medium_airport
Scheduled airline service: yes
Links: Wikipedia Mobile

Weather (top)

Current conditions (rec'd 2015/01/26 01:45Z):

MMCN 260145Z 25003KT 10SM FEW050 SCT100 OVC200 19/10 A2997 RMK 8/537 HZY

Airport forecast (rec'd 2015/01/24 06:21Z):

TAF TAF MMCN 240520Z 2406/2506 33005KT P6SM SCT100 BKN200 
     FM241800 34010KT P6SM BKN100 OVC200 
      BECMG 2501/2502 32005KT

Frequencies (top)

Verify before use: may be inaccurate or out of date.

APP: 121.3 MHz (APP)
ATIS: 127.6 MHz (ATIS)
TWR: 118.3 MHz (OBREGON TWR)

Runways (top)

13/31: 7,546 x 148 ft (2,300 x 45 m) — paved — lighted

Latest comments (top)

No comments yet for Ciudad Obregón International Airport

More... (top)

See also NOTAMs and nearby airports and navaids, or visit the Ciudad Obregón International Airport page at the main OurAirports website..